Weather History for KGPT - December, 2013

Change the Weather History Date:

Friday, December 27, 2013

  Actual Average Record
Temperature  
Mean Temperature 54 °F -  
Max Temperature 63 °F 63 °F 75 °F (1971)
Min Temperature 44 °F 45 °F 24 °F (2010)
Degree Days  
Heating Degree Days 12    
Growing Degree Days 4 (Base 50)    
Moisture  
Dew Point 33 °F    
Average Humidity 49    
Maximum Humidity 68    
Minimum Humidity 31    
Precipitation  
Precipitation 0.00 in - - ()
Sea Level Pressure  
Sea Level Pressure 30.32 in    
Wind  
Wind Speed 8 mph (NNE)    
Max Wind Speed 13 mph    
Max Gust Speed 18 mph    
Visibility 10 miles    
Events Rain    
Averages and records for this station are not official NWS values.
T = Trace of Precipitation, MM = Missing Value Source: NWS Daily Summary

Daily Weather History Graph

Daily Weather History Graph

Search for Another Location

Airport or City:

Trip Planner

Search our weather history database for the weather conditions in past years. The results will help you decide how hot, cold, wet, or windy it might be!

Date:

Astronomy

Dec. 27, 2013 Rise Set
Actual Time 6:51 AM CST 5:03 PM CST
Civil Twilight 6:25 AM CST 5:29 PM CST
Nautical Twilight 5:55 AM CST 5:59 PM CST
Astronomical Twilight 5:25 AM CST 6:29 PM CST
Moon 1:36 AM CST (12/27) 1:02 PM CST (12/27)
Length of Visible Light 11h 04m
Length of Day
10h 11m
Waning Crescent, 28% of the Moon is Illuminated
Dec 27
Waning Crescent
Jan 1
New
Jan 7
First Quarter
Jan 15
Full
Jan 23
Last Quarter

Hourly Weather History & Observations

Time (CST) Temp. Windchill Dew Point Humidity Pressure Visibility Wind Dir Wind Speed Gust Speed Precip Events Conditions
12:53 AM 46.0 °F 42.5 °F 33.1 °F 61% 30.32 in 10.0 mi North 6.9 mph - N/A   Clear
1:53 AM 44.1 °F 40.8 °F 34.0 °F 68% 30.32 in 10.0 mi NNE 5.8 mph - N/A   Clear
2:53 AM 44.1 °F 40.8 °F 33.1 °F 65% 30.33 in 10.0 mi NNE 5.8 mph - N/A   Clear
3:53 AM 44.1 °F 40.1 °F 33.1 °F 65% 30.34 in 10.0 mi NNE 6.9 mph - N/A   Clear
4:53 AM 44.1 °F 39.5 °F 33.1 °F 65% 30.34 in 10.0 mi North 8.1 mph - N/A   Clear
5:53 AM 45.0 °F 40.6 °F 33.1 °F 63% 30.35 in 10.0 mi NNE 8.1 mph - N/A   Clear
6:53 AM 45.0 °F 41.8 °F 33.1 °F 63% 30.36 in 10.0 mi NNE 5.8 mph - N/A   Clear
7:53 AM 46.9 °F - 33.1 °F 59% 30.38 in 10.0 mi NNE 6.9 mph - N/A   Clear
8:53 AM 50.0 °F - 33.1 °F 52% 30.38 in 10.0 mi NNE 8.1 mph - N/A   Clear
9:53 AM 55.0 °F - 32.0 °F 42% 30.40 in 10.0 mi NE 8.1 mph - N/A   Clear
10:53 AM 57.9 °F - 32.0 °F 37% 30.37 in 10.0 mi NE 10.4 mph - N/A   Clear
11:53 AM 57.9 °F - 32.0 °F 37% 30.36 in 10.0 mi NNE 9.2 mph - N/A   Clear
12:53 PM 62.1 °F - 33.1 °F 34% 30.31 in 10.0 mi North 8.1 mph 18.4 mph N/A   Clear
1:53 PM 63.0 °F - 32.0 °F 31% 30.28 in 10.0 mi North 12.7 mph - N/A   Clear
2:53 PM 62.1 °F - 33.1 °F 34% 30.28 in 10.0 mi NNE 10.4 mph - N/A   Clear
3:53 PM 60.1 °F - 34.0 °F 38% 30.28 in 10.0 mi NNE 9.2 mph - N/A   Clear
4:53 PM 57.9 °F - 35.1 °F 42% 30.30 in 10.0 mi NNE 6.9 mph - N/A   Clear
5:53 PM 57.0 °F - 35.1 °F 44% 30.31 in 10.0 mi North 5.8 mph - N/A   Clear
6:53 PM 55.9 °F - 36.0 °F 47% 30.32 in 10.0 mi North 8.1 mph - N/A   Clear
7:53 PM 55.0 °F - 34.0 °F 45% 30.32 in 10.0 mi NNE 8.1 mph - N/A   Scattered Clouds
8:53 PM 55.0 °F - 33.1 °F 43% 30.30 in 10.0 mi NNE 8.1 mph - N/A   Mostly Cloudy
9:53 PM 54.0 °F - 34.0 °F 47% 30.28 in 10.0 mi NNE 6.9 mph - 0.00 in Rain Light Rain
10:53 PM 54.0 °F - 34.0 °F 47% 30.27 in 10.0 mi NNE 8.1 mph - 0.00 in   Overcast
11:53 PM 54.0 °F - 33.1 °F 45% 30.26 in 10.0 mi NNE 10.4 mph - 0.00 in   Overcast